[[{"header":{"parameterUnit":"m.s-1","parameterCategory":1,"la1":30.2991,"la2":30.254,"lo1":-89.0895,"lo2":-89.0444,"dy":0.0017,"dx":0.0017,"nx":28,"ny":28,"refTime":"2025-06-20T09:00:00:Z","depth":0,"parameterNumber":2,"parameterNumberName":"U-component_of_WINDS"},"data":[0,0,0,0,0,0,0,0,0,0,0,0,0,0,0,0,0,0,0,0,0,0,0,0,0,0,0,0,0,0,0,0,0,0,0,0,0,0,0,0,0,0,0,0,0,0,0,0,0,0,0,0,0,0,0,0,0,0,0.1581,0.1581,0,0.1583,0.1583,0.1583,0.1589,0.1589,0.1589,0.1589,0.1591,0.1591,0.1591,0,0,0,0,0,0,0,0,0,0,0,0,0,0.1578,0.1578,0.1581,0.1581,0.1581,0.1583,0.1583,0.1583,0.1589,0.1589,0.1589,0.159,0.1591,0.1591,0.1591,0,0,0,0,0,0,0,0,0,0,0,0,0,0.1579,0.1578,0.1581,0.1584,0.1584,0.1583,0.1583,0.1583,0.1589,0.1589,0.1589,0.159,0.1591,0.1591,0.1591,0.1586,0,0,0.159,0.159,0,0,0,0,0,0,0,0,0.1579,0.1579,0.1583,0.1584,0.1584,0.1586,0.1583,0.1584,0.1589,0.1587,0.1589,0.159,0.1589,0.1589,0.1589,0.1586,0.1586,0.159,0.159,0.159,0.159,0,0,0,0,0,0,0,0.1579,0.1579,0.1582,0.1583,0.1584,0.1584,0.1585,0.1583,0.1587,0.1587,0.1588,0.1588,0.1589,0.1589,0.1589,0.1587,0.159,0.159,0.159,0.159,0.1578,0.1577,0,0,0,0,0,0,0.1579,0.1579,0.1581,0.1582,0.1582,0.1584,0.1585,0.1585,0.1587,0.1588,0.1588,0.1588,0.1589,0.1589,0.1589,0.1583,0.159,0.159,0.159,0.1578,0.1578,0.1577,0,0,0,0,0,0,0.1579,0.1579,0.1581,0.1581,0.1581,0.1584,0.1584,0.1585,0.1585,0.1588,0.1588,0.1587,0.159,0.1589,0.1587,0.1583,0.159,0.159,0.1578,0.1578,0.1577,0.157,0,0,0,0,0,0,0.1579,0.1579,0.1578,0.1581,0.1581,0.1579,0.1584,0.1585,0.1585,0.1586,0.1587,0.1588,0.159,0.1587,0.1586,0.1583,0.159,0.1579,0.1578,0.1578,0.1571,0.157,0.1569,0,0,0,0,0,0.1579,0.1576,0.1578,0.1578,0.158,0.1579,0.1579,0.1582,0.1585,0.1583,0.1584,0.1587,0.1583,0.1586,0.1586,0.1582,0.1579,0.1578,0.1578,0.1571,0.157,0.1569,0,0,0,0,0,0,0.1574,0.1577,0.1579,0.1578,0.1578,0.158,0.1579,0.1581,0.1581,0.1581,0.1584,0.1584,0.1581,0.1581,0.1585,0.1577,0.1581,0.1581,0.1577,0.1576,0.1574,0.1574,0.159,0,0,0,0,0,0.1572,0.1572,0.1575,0.1573,0.1573,0.1576,0.1576,0.1578,0.1578,0.1578,0.1579,0.1579,0.1578,0.1577,0.1576,0.1571,0.157,0.1568,0.1567,0.1566,0.1565,0.1561,0.1559,0.1575,0.1575,0.1575,0,0,0.157,0.1572,0.1571,0.1572,0.1573,0.1571,0.1576,0.1575,0.1573,0.1578,0.1575,0.1576,0.1575,0.1571,0.1569,0.1572,0.1561,0.1565,0.1565,0.1564,0.156,0.1559,0.1557,0.1575,0.1575,0.1575,0,0,0.1565,0.1566,0.1564,0.1565,0.1565,0.1567,0.1566,0.1567,0.1568,0.1565,0.1568,0.1565,0.1563,0.1563,0.1562,0.1553,0.1555,0.1553,0.1547,0.1543,0.1541,0.154,0.1536,0.1534,0.1552,0.1552,0.1552,0,0.1561,0.156,0.1563,0.1561,0.156,0.1564,0.1561,0.1561,0.1561,0.156,0.1563,0.1559,0.1559,0.1554,0.1551,0.1551,0.1549,0.1553,0.1542,0.154,0.1539,0.1535,0.1534,0.1552,0.1552,0.1552,0.1552,0,0.1555,0.1554,0.1552,0.1552,0.1551,0.1549,0.155,0.1548,0.155,0.155,0.1546,0.1546,0.1544,0.1543,0.1545,0.1537,0.1538,0.1541,0.1546,0.1537,0.1533,0.1532,0.1551,0.1551,0.1551,0.1552,0,0,0.1548,0.1548,0.1547,0.1546,0.1546,0.1545,0.1541,0.1539,0.1537,0.1537,0.1533,0.153,0.1532,0.1531,0.1532,0.1528,0.1519,0.1531,0.1531,0.1528,0.1509,0.1506,0.1504,0.1521,0.1521,0.152,0.1508,0,0.1542,0.1538,0.1539,0.1534,0.1531,0.1533,0.153,0.1529,0.1529,0.1526,0.1526,0.1523,0.1527,0.1526,0.1522,0.1521,0.1515,0.1522,0.1516,0.1516,0.1516,0.1503,0.15,0.1489,0.1507,0.1507,0.1507,0,0.1535,0.1534,0.1528,0.1526,0.1525,0.1522,0.1519,0.1517,0.1515,0.1515,0.1513,0.1514,0.1509,0.1513,0.1506,0.151,0.1508,0.1507,0.1506,0.1505,0.151,0.15,0.1486,0.1484,0.1504,0.1505,0.1505,0,0.1529,0.1526,0.1521,0.152,0.1518,0.1516,0.1515,0.1513,0.1511,0.1508,0.1506,0.1503,0.15,0.1497,0.1497,0.15,0.1488,0.1493,0.1487,0.1487,0.1484,0.1485,0.1468,0.1484,0.1484,0.1484,0.1484,0,0.1522,0.1518,0.1518,0.1515,0.151,0.1511,0.1506,0.1505,0.1502,0.1498,0.15,0.1496,0.1496,0.1492,0.1491,0.1484,0.1483,0.1482,0.1482,0.1482,0.1482,0.148,0.148,0.1484,0.1484,0.1484,0.1484,0,0.1515,0.1515,0.151,0.1508,0.1507,0.1503,0.1501,0.1497,0.1496,0.1491,0.149,0.1488,0.1483,0.1482,0.1476,0.1476,0.1466,0.1468,0.1467,0.1467,0.146,0.1461,0.1442,0.1439,0.1457,0.1457,0.1457,0,0.151,0.1507,0.1504,0.1502,0.15,0.1496,0.1494,0.1493,0.149,0.1486,0.1483,0.1477,0.1473,0.1464,0.1462,0.1456,0.1457,0.145,0.1456,0.1455,0.1455,0.1455,0.1454,0.1449,0.1449,0.1449,0.1449,0,0.1502,0.1501,0.1498,0.1493,0.149,0.1487,0.1483,0.1481,0.148,0.1476,0.147,0.1467,0.146,0.1454,0.1448,0.1446,0.1446,0.1447,0.1445,0.1444,0.1444,0.1442,0.1463,0.1448,0.1448,0.1448,0.1448,0.1448,0.1495,0.1491,0.1488,0.1483,0.1481,0.1477,0.1473,0.1471,0.1466,0.146,0.146,0.1453,0.1449,0.1441,0.1438,0.1432,0.1434,0.1431,0.143,0.143,0.1428,0.1445,0.1431,0.1431,0.1431,0.1431,0.1431,0,0.1485,0.1483,0.1478,0.1473,0.1469,0.147,0.1465,0.1461,0.1455,0.1451,0.1446,0.1438,0.1432,0.1428,0.1422,0.1417,0.1417,0.1415,0.1415,0.1414,0.1428,0.1429,0.1415,0.1415,0.1415,0.1415,0.1415,0.1415,0.148,0.1473,0.1472,0.1463,0.146,0.1453,0.145,0.1446,0.1443,0.1434,0.1428,0.1426,0.1421,0.1413,0.1407,0.1406,0.1403,0.14,0.1399,0.1412,0.1414,0.1415,0.1417,0.14,0.14,0.1386,0.1386,0.1386]},{"header":{"parameterUnit":"m.s-1","parameterCategory":1,"la1":30.2991,"la2":30.254,"lo1":-89.0895,"lo2":-89.0444,"dy":0.0017,"dx":0.0017,"nx":28,"ny":28,"refTime":"2025-06-20T09:00:00:Z","depth":0,"parameterNumber":3,"parameterNumberName":"V-component_of_WINDS"},"data":[0,0,0,0,0,0,0,0,0,0,0,0,0,0,0,0,0,0,0,0,0,0,0,0,0,0,0,0,0,0,0,0,0,0,0,0,0,0,0,0,0,0,0,0,0,0,0,0,0,0,0,0,0,0,0,0,0,0,2.7027,2.7027,0,2.7034,2.7034,2.7034,2.6979,2.6977,2.6976,2.6974,2.6981,2.6982,2.6984,0,0,0,0,0,0,0,0,0,0,0,0,0,2.6966,2.6967,2.7027,2.7027,2.7027,2.7034,2.7034,2.7034,2.6979,2.6977,2.6975,2.6974,2.698,2.6982,2.6984,0,0,0,0,0,0,0,0,0,0,0,0,0,2.6985,2.6968,2.7027,2.7001,2.6998,2.7034,2.7034,2.7034,2.6979,2.6977,2.6975,2.6973,2.698,2.6982,2.6984,2.7045,0,0,2.6992,2.6993,0,0,0,0,0,0,0,0,2.6984,2.6987,2.7005,2.7003,2.7,2.7003,2.7014,2.7038,2.698,2.6987,2.6974,2.6972,2.699,2.6991,2.6998,2.7045,2.7046,2.6992,2.6993,2.6994,2.6995,0,0,0,0,0,0,0,2.6982,2.6986,2.703,2.7005,2.7002,2.6988,2.6988,2.7019,2.7001,2.6986,2.6982,2.6983,2.6988,2.6995,2.6997,2.7046,2.6992,2.6994,2.6995,2.6996,2.7142,2.7144,0,0,0,0,0,0,2.6985,2.6986,2.703,2.703,2.6986,2.6991,2.6991,2.7004,2.7001,2.6998,2.6985,2.6981,2.6992,2.6995,2.6997,2.7067,2.6994,2.6997,2.6998,2.7139,2.7142,2.7145,0,0,0,0,0,0,2.6984,2.6989,2.7029,2.7007,2.7011,2.6995,2.701,2.7006,2.7013,2.7,2.6997,2.6996,2.6991,2.6994,2.7033,2.7066,2.6998,2.7,2.7136,2.714,2.7144,2.7207,0,0,0,0,0,0,2.6982,2.6989,2.7013,2.7008,2.7012,2.7066,2.7012,2.7008,2.7017,2.7011,2.7009,2.7007,2.6989,2.703,2.7036,2.7068,2.7002,2.7133,2.7138,2.7142,2.7202,2.7213,2.7222,0,0,0,0,0,2.698,2.7031,2.7014,2.702,2.7041,2.7068,2.707,2.7049,2.702,2.7043,2.7035,2.7007,2.7062,2.7034,2.704,2.7074,2.7131,2.7137,2.7142,2.7198,2.721,2.7221,0,0,0,0,0,0,2.704,2.703,2.7011,2.7062,2.7066,2.7058,2.7087,2.7064,2.7076,2.707,2.7043,2.7043,2.7087,2.7085,2.7054,2.7132,2.7091,2.7098,2.7132,2.7144,2.7153,2.7152,2.7004,0,0,0,0,0,2.7059,2.7082,2.7071,2.7117,2.712,2.7103,2.7114,2.7097,2.7101,2.7102,2.7097,2.7101,2.7119,2.7131,2.7148,2.7202,2.72,2.7228,2.7238,2.7246,2.7252,2.7278,2.729,2.7163,2.7163,2.7163,0,0,2.7099,2.7096,2.7112,2.7129,2.713,2.7154,2.7105,2.7132,2.7149,2.7106,2.7142,2.7139,2.7141,2.7188,2.7208,2.7188,2.7287,2.7253,2.7259,2.7261,2.7285,2.7297,2.7308,2.7166,2.7166,2.7165,0,0,2.7183,2.7184,2.7221,2.7223,2.7225,2.7214,2.7223,2.7218,2.7214,2.725,2.7217,2.7237,2.7269,2.7272,2.7278,2.7361,2.7336,2.7367,2.7418,2.7444,2.7454,2.7463,2.7491,2.7502,2.7374,2.7374,2.7374,0,2.7232,2.7266,2.7243,2.7272,2.7279,2.7241,2.7278,2.7281,2.7289,2.7295,2.7272,2.731,2.7309,2.7355,2.7375,2.7382,2.739,2.7367,2.7455,2.7463,2.7471,2.7498,2.7509,2.7377,2.7377,2.7377,2.7376,0,2.7325,2.735,2.7379,2.7387,2.7398,2.7431,2.7411,2.7426,2.7408,2.7398,2.7434,2.7432,2.7446,2.7456,2.7439,2.7499,2.7486,2.746,2.7418,2.7487,2.7512,2.7522,2.7383,2.7381,2.738,2.7379,0,0,2.7448,2.7441,2.7452,2.7454,2.7454,2.7471,2.7502,2.7516,2.7527,2.7534,2.7558,2.7586,2.756,2.7567,2.755,2.7573,2.7638,2.7543,2.7543,2.756,2.7702,2.772,2.7733,2.7621,2.7623,2.7624,2.7701,0,2.7528,2.7579,2.7559,2.7612,2.7633,2.7596,2.7623,2.7625,2.7617,2.7633,2.7624,2.7643,2.7609,2.7613,2.7634,2.7625,2.7665,2.762,2.7642,2.7643,2.7641,2.7746,2.7766,2.7838,2.771,2.7712,2.7713,0,2.7629,2.7638,2.7693,2.7687,2.7695,2.7719,2.7729,2.7746,2.7747,2.7739,2.7746,2.7723,2.7752,2.7712,2.775,2.7719,2.7727,2.7724,2.7726,2.7727,2.7681,2.7747,2.7861,2.7872,2.7728,2.7727,2.7726,0,2.771,2.7737,2.7773,2.7776,2.7771,2.7788,2.7786,2.7785,2.7794,2.7803,2.7808,2.7821,2.7827,2.7837,2.7818,2.779,2.7858,2.7817,2.7852,2.7852,2.7867,2.7866,2.7982,2.7875,2.7875,2.7874,2.7874,0,2.7801,2.7836,2.7809,2.7831,2.7868,2.7844,2.7881,2.7876,2.7875,2.7895,2.7865,2.7884,2.7858,2.7875,2.786,2.7893,2.7897,2.7891,2.7886,2.7893,2.7893,2.7897,2.7891,2.7877,2.7877,2.7876,2.7876,0,2.7898,2.7882,2.7918,2.7909,2.7908,2.7936,2.7928,2.7947,2.7937,2.7962,2.7966,2.795,2.7968,2.795,2.7967,2.7957,2.8001,2.799,2.8,2.7997,2.8032,2.8029,2.8153,2.8168,2.8053,2.8054,2.8055,0,2.7957,2.7982,2.7976,2.7987,2.7987,2.8005,2.8013,2.799,2.8,2.8003,2.8022,2.8037,2.8048,2.8078,2.8067,2.8079,2.8067,2.811,2.8069,2.8074,2.8066,2.8064,2.8066,2.8118,2.812,2.8121,2.8122,0,2.8062,2.8052,2.8066,2.8076,2.8087,2.8094,2.8099,2.8109,2.8085,2.8098,2.8115,2.8123,2.814,2.8155,2.8164,2.8162,2.8138,2.8135,2.8143,2.8149,2.8154,2.815,2.8022,2.8132,2.8131,2.813,2.813,2.8129,2.814,2.816,2.8159,2.8174,2.8175,2.818,2.8197,2.8188,2.8202,2.8214,2.8199,2.822,2.822,2.8229,2.823,2.8246,2.8228,2.824,2.8243,2.8247,2.8251,2.8152,2.8248,2.8247,2.8247,2.8247,2.8247,0,2.8242,2.8239,2.8253,2.826,2.8272,2.8248,2.8252,2.8263,2.8282,2.8284,2.8294,2.8314,2.8328,2.8318,2.833,2.8344,2.8333,2.8348,2.8346,2.8346,2.8267,2.8258,2.8357,2.8357,2.8357,2.8357,2.8357,2.8357,2.8297,2.8329,2.8319,2.8351,2.8347,2.8367,2.8371,2.8375,2.8376,2.8399,2.841,2.8403,2.84,2.8411,2.8423,2.8419,2.8424,2.8443,2.8436,2.8362,2.8351,2.8341,2.8332,2.8445,2.8445,2.8512,2.8513,2.8513]}]]